Location: Catacaguana
(10.4120°N, 66.7591°W)
Time: 04:40:08
(UTC+00:00)

Haruka - Pass Details

Date: 27 May 2022
Orbit: 545 x 21196 km, 31.2° (Epoch: 25 June)

Event Time Altitude Azimuth Distance (km) Brightness Sun altitude
Rises 09:24:06 0° 295° (WNW) 5,825 7.1 -9.9°
Reaches altitude 10° 09:29:29 10° 288° (WNW) 3,365 5.9 -8.7°
Maximum altitude 09:35:19 36° 221° (SW) 1,081 3.4 -7.4°
Drops below altitude 10° 09:38:29 10° 151° (SSE) 1,809 5.0 -6.7°
Sets 09:40:26 0° 140° (SE) 2,714 6.1 -6.2°
